TimeCST,TemperatureF,Dew PointF,Humidity,Sea Level PressureIn,VisibilityMPH,Wind Direction,Wind SpeedMPH,Gust SpeedMPH,PrecipitationIn,Events,Conditions,WindDirDegrees,DateUTC
12:56 AM,31.1,19.0,61,30.30,10.0,NNW,10.4,-,N/A,,Clear,330,2012-11-24 06:56:00
2:56 AM,28.0,19.0,69,30.30,10.0,NNW,8.1,-,N/A,,Clear,330,2012-11-24 08:56:00
3:56 AM,25.2,19.0,78,30.30,10.0,NW,5.8,-,N/A,,Clear,310,2012-11-24 09:56:00
4:56 AM,25.2,18.1,75,30.30,10.0,NW,6.9,-,N/A,,Clear,320,2012-11-24 10:56:00
5:56 AM,25.2,18.1,75,30.32,7.0,NW,6.9,-,N/A,,Clear,320,2012-11-24 11:56:00
6:56 AM,24.1,18.1,78,30.32,10.0,NW,3.5,-,N/A,,Clear,320,2012-11-24 12:56:00
7:56 AM,28.0,21.0,75,30.33,10.0,WNW,5.8,-,N/A,,Clear,290,2012-11-24 13:56:00
8:56 AM,30.0,20.1,67,30.34,10.0,NW,8.1,-,N/A,,Scattered Clouds,320,2012-11-24 14:56:00
9:06 AM,30.2,21.2,69,30.33,10.0,NNW,8.1,-,N/A,,Mostly Cloudy,330,2012-11-24 15:06:00
9:56 AM,31.1,20.1,64,30.35,10.0,NW,10.4,-,N/A,,Mostly Cloudy,310,2012-11-24 15:56:00
10:56 AM,32.9,20.1,59,30.33,10.0,NNW,9.2,-,N/A,,Scattered Clouds,330,2012-11-24 16:56:00
11:56 AM,34.9,21.0,57,30.30,10.0,NW,8.1,-,N/A,,Partly Cloudy,310,2012-11-24 17:56:00
12:56 PM,36.0,21.0,55,30.28,10.0,WNW,10.4,-,N/A,,Clear,290,2012-11-24 18:56:00
1:56 PM,36.9,21.0,53,30.27,10.0,WNW,5.8,-,N/A,,Clear,290,2012-11-24 19:56:00
2:56 PM,36.9,21.0,53,30.26,10.0,NW,6.9,-,N/A,,Clear,320,2012-11-24 20:56:00
3:56 PM,36.0,21.0,55,30.25,10.0,WNW,4.6,-,N/A,,Clear,300,2012-11-24 21:56:00
4:56 PM,34.9,22.1,60,30.24,10.0,Calm,Calm,-,N/A,,Clear,0,2012-11-24 22:56:00
5:56 PM,32.0,22.1,67,30.23,10.0,Calm,Calm,-,N/A,,Clear,0,2012-11-24 23:56:00
6:56 PM,31.1,23.0,72,30.22,10.0,Calm,Calm,-,N/A,,Clear,0,2012-11-25 00:56:00
7:56 PM,29.1,22.1,75,30.21,10.0,SSE,3.5,-,N/A,,Clear,160,2012-11-25 01:56:00
8:56 PM,29.1,22.1,75,30.19,10.0,South,3.5,-,N/A,,Clear,170,2012-11-25 02:56:00
9:56 PM,27.1,22.1,81,30.19,10.0,South,3.5,-,N/A,,Clear,170,2012-11-25 03:56:00
10:56 PM,26.1,21.0,81,30.16,10.0,SSE,6.9,-,N/A,,Clear,160,2012-11-25 04:56:00
11:56 PM,26.1,22.1,85,30.14,10.0,South,6.9,-,N/A,,Clear,170,2012-11-25 05:56:00